"Time","Temp","Dewpoint","Humidity","Pressure","Direction","Speed","Gust","Precip","PrecipRate"
"00:04:56","61.8","60.1","94","30.13","335","0","0","0.00","0.00"
"00:09:59","61.7","60","94","30.13","335","0","0","0.00","0.00"
"00:14:57","61.6","59.9","94","30.13","335","0","0","0.00","0.00"
"00:19:57","61.4","59.7","94","30.13","335","0","0","0.00","0.00"
"00:24:57","61.4","59.7","94","30.13","335","0","0","0.00","0.00"
"00:29:57","61.3","59.6","94","30.13","335","0.1","1.2","0.00","0.00"
"00:34:57","61.4","59.9","94.7","30.13","335","0.1","1.2","0.00","0.00"
"00:39:58","61.5","60.1","95","30.13","335","0.3","1.2","0.00","0.00"
"00:44:58","61.6","60.1","94.6","30.13","335","0.2","2.4","0.00","0.00"
"00:49:58","61.9","60.2","94","30.13","335","0.6","3.6","0.00","0.00"
"00:54:58","62.1","60.1","93.1","30.13","335","0.6","3.5","0.00","0.00"
"00:59:58","62.2","60.2","93","30.13","335","0.2","1.2","0.00","0.00"
"01:04:56","62.3","59.9","92","30.13","335","0.1","1.2","0.00","0.00"
"01:09:56","62.5","60","91.7","30.13","335","0","0","0.00","0.00"
"01:14:58","62.7","60","91","30.13","335","0.1","3.6","0.00","0.00"
"01:19:58","62.9","60","90.4","30.12","335","0.9","3.5","0.00","0.00"
"01:24:57","63","60","89.8","30.12","336","0.6","3.6","0.00","0.00"
"01:29:57","63.3","60","89","30.13","336","0.2","2.3","0.00","0.00"
"01:34:57","63.4","59.9","88.5","30.13","335","0.3","2.4","0.00","0.00"
"01:39:58","63.4","59.8","88","30.13","335","0.3","2.4","0.00","0.00"
"01:44:59","63.4","59.8","88","30.13","335","0.1","2.3","0.00","0.00"
"01:49:59","63.4","59.8","88","30.13","335","0","0","0.00","0.00"
"01:54:59","63.2","59.6","88","30.13","335","0","0","0.00","0.00"
"01:59:58","63.1","59.7","88.7","30.13","335","0","0","0.00","0.00"
"02:04:57","63.1","59.8","89","30.12","335","0","0","0.00","0.00"
"02:09:57","63","59.6","88.6","30.12","335","0.2","2.4","0.00","0.00"
"02:14:59","62.9","59.6","89","30.13","335","0.2","1.2","0.00","0.00"
"02:19:59","62.8","59.5","89","30.13","335","0.3","1.2","0.00","0.00"
"02:24:31","62.8","59.5","89","30.13","335","0","1.2","0.00","0.00"
"02:29:59","62.8","59.5","89","30.13","335","0.5","3.6","0.00","0.00"
"02:34:58","62.8","59.5","89","30.13","335","1.1","2.4","0.00","0.00"
"02:39:59","62.9","59.3","88.1","30.13","335","0.6","2.4","0.00","0.00"
"02:44:59","62.9","59.3","88","30.13","335","0.5","2.4","0.00","0.00"
"02:49:59","62.9","59.3","88","30.13","335","0.2","2.4","0.00","0.00"
"02:54:59","63","59.4","88","30.13","335","0","2.4","0.00","0.00"
"02:59:59","63","59.4","88","30.13","335","0","1.2","0.00","0.00"
"03:04:59","62.9","59.3","88","30.13","335","0.5","2.4","0.00","0.00"
"03:09:58","62.9","59.3","88","30.13","334","0.5","3.6","0.00","0.00"
"03:14:59","63","59.4","88","30.13","326","1","4.8","0.00","0.00"
"03:19:59","63.1","59.5","88","30.13","308","0.7","3.6","0.00","0.00"
"03:24:59","63.1","59.5","87.9","30.13","302","0.7","3.5","0.00","0.00"
"03:29:58","63.1","59.3","87.2","30.14","302","0.5","3.6","0.00","0.00"
"03:34:58","63.1","59.2","87","30.14","292","0.6","3.6","0.00","0.00"
"03:39:56","63.2","59.3","87","30.14","292","0.4","3.6","0.00","0.00"
"03:44:56","63.3","59.4","87","30.14","292","1","3.5","0.00","0.00"
"03:49:59","63.3","59.4","87","30.13","292","0.7","3.6","0.00","0.00"
"03:54:59","63.3","59.4","87","30.13","292","0.7","3.6","0.00","0.00"
"03:59:58","63.4","59.5","87","30.13","332","1","6","0.00","0.00"
"04:04:01","63.4","59.5","87","30.13","332","1","3.6","0.00","0.00"
"04:09:57","63.3","59.4","87","30.13","332","0.2","2.4","0.00","0.00"
"04:14:59","63.2","59.3","87","30.13","332","0.1","2.4","0.00","0.00"
"04:19:59","63","59.1","87","30.13","332","0.7","3.6","0.00","0.00"
"04:24:58","62.9","59.1","87.2","30.13","332","0.8","2.4","0.00","0.00"
"04:29:58","62.8","59.1","87.8","30.14","332","0.9","3.6","0.00","0.00"
"04:34:59","62.7","59","87.8","30.14","332","1.2","3.6","0.00","0.00"
"04:39:56","62.7","59.1","88","30.14","333","0.8","3.6","0.00","0.00"
"04:44:55","62.7","59.1","88","30.14","333","0.7","3.6","0.00","0.00"
"04:49:07","62.6","59","88","30.14","333","0.4","2.4","0.00","0.00"
"04:54:59","62.5","58.9","88","30.14","333","0.2","2.4","0.00","0.00"
"04:59:59","62.6","59.3","89","30.14","333","0.5","2.4","0.00","0.00"
"05:04:58","62.7","59.2","88.3","30.14","332","0.8","3.6","0.00","0.00"
"05:09:57","62.6","59","88","30.14","330","0.8","2.4","0.00","0.00"
"05:14:58","62.4","58.8","88","30.14","312","1.3","3.6","0.00","0.00"
"05:19:58","62.3","59","88.9","30.14","262","1.6","3.6","0.00","0.00"
"05:24:58","62.4","59","88.9","30.14","262","1.1","3.6","0.00","0.00"
"05:29:57","62.5","59","88.2","30.14","280","1.3","7.2","0.00","0.00"
"05:34:57","63","59.2","87.5","30.14","335","2.1","7.2","0.00","0.00"
"05:39:38","63.4","59.5","86.9","30.14","312","2.9","7.2","0.00","0.00"
"05:44:58","63.8","59.4","85.9","30.15","341","1.5","7.2","0.00","0.00"
"05:49:58","63.9","59.3","85","30.15","346","1.3","6.9","0.00","0.00"
"05:54:58","64","59.4","85","30.15","340","1.9","6","0.00","0.00"
"05:59:58","64","59.4","85","30.15","348","1.3","4.8","0.00","0.00"
"06:04:44","63.9","59.3","85","30.15","347","0.7","3.6","0.00","0.00"
"06:09:57","63.7","59.1","85","30.15","347","0.2","1.2","0.00","0.00"
"06:14:59","63.6","59.2","85.8","30.16","347","0.2","1.2","0.00","0.00"
"06:19:59","63.4","59.2","86.4","30.16","347","0.2","1.2","0.00","0.00"
"06:24:58","63.2","58.9","86","30.16","347","0.5","2.4","0.00","0.00"
"06:29:58","63.1","58.8","86","30.16","347","0.3","3.6","0.00","0.00"
"06:33:23","62.9","58.9","86.6","30.16","347","0.4","2.4","0.00","0.00"
"06:39:56","62.7","58.8","87","30.16","347","0.1","1.2","0.00","0.00"
"06:44:56","62.6","58.7","87","30.17","347","0.1","2.4","0.00","0.00"
"06:49:56","62.4","58.7","87.7","30.17","347","0.8","3.6","0.00","0.00"
"06:54:56","62.4","58.8","88","30.17","347","0.3","2.4","0.00","0.00"
"06:59:55","62.3","58.7","88","30.17","347","1","3.6","0.00","0.00"
"07:04:58","62.3","58.7","88","30.17","347","0.8","3.6","0.00","0.00"
"07:09:57","62.3","58.7","88","30.17","347","0.8","6","0.00","0.00"
"07:14:59","62.5","58.9","88","30.18","347","1.4","5.8","0.00","0.00"
"07:19:59","62.6","59","88","30.18","347","0.5","2.4","0.00","0.00"
"07:24:59","62.6","59","88","30.18","347","0.5","2.3","0.00","0.00"
"07:29:58","62.8","59.2","88","30.19","346","0.7","3.6","0.00","0.00"
"07:34:58","63.1","59.5","88","30.19","347","0.7","2.4","0.00","0.00"
"07:39:34","63.2","59.4","87.1","30.19","347","0.9","2.4","0.00","0.00"
"07:44:58","63.5","59.6","87","30.19","346","1.3","4.8","0.00","0.00"
"07:49:58","63.8","59.8","86.6","30.19","332","1.9","6","0.00","0.00"
"07:54:57","64.3","59.9","85.7","30.19","332","2.2","6","0.00","0.00"
"07:59:56","64.7","60.1","85","30.20","331","2.3","6","0.00","0.00"
"08:04:47","65","60.2","84.4","30.20","331","1.9","4.8","0.00","0.00"
"08:09:58","65.3","60.2","83.5","30.20","327","2.5","6","0.00","0.00"
"08:14:59","65.7","60.5","83.4","30.20","328","0.4","4.6","0.00","0.00"
"08:19:58","66","60.7","83","30.20","328","0.7","4.8","0.00","0.00"
"08:24:58","66.5","61.2","83","30.20","328","0.6","3.6","0.00","0.00"
"08:29:57","66.9","61.3","82.3","30.20","328","1","4.8","0.00","0.00"
"08:34:56","67.1","61","80.9","30.20","325","3.5","7.2","0.00","0.00"
"08:37:28","67","61","81","30.20","317","1.9","5.8","0.00","0.00"
"08:44:56","67.2","61.3","81.2","30.20","348","2.2","4.8","0.00","0.00"
"08:49:56","67.5","61.6","81.3","30.20","348","2","4.8","0.00","0.00"
"08:54:59","67.7","61.7","81.2","30.20","343","2.4","6","0.00","0.00"
"08:59:58","67.9","62","81.3","30.20","338","2","7.2","0.00","0.00"
"09:04:56","68.2","62.3","81.5","30.20","320","2.3","7.2","0.00","0.00"
"09:09:59","68.4","62.3","80.8","30.20","313","3","7.2","0.00","0.00"
"09:14:56","68.7","62.5","80.6","30.20","311","2.7","8.4","0.00","0.00"
"09:19:56","68.9","62.4","79.8","30.20","308","3","8.4","0.00","0.00"
"09:24:59","69.2","62.6","79.6","30.20","315","2.8","12","0.00","0.00"
"09:29:58","69.5","62.7","79","30.21","328","5.3","13.2","0.00","0.00"
"09:34:57","69.8","63.2","79.5","30.21","309","2.6","6","0.00","0.00"
"09:39:58","70.3","63.7","79.5","30.21","302","2","6","0.00","0.00"
"09:44:57","70.8","63.1","76.8","30.21","321","3.4","7.2","0.00","0.00"
"09:49:57","70.9","63.2","76.4","30.21","321","3.8","7.2","0.00","0.00"
"09:54:56","71.2","63.5","76.9","30.21","325","3.7","10.8","0.00","0.00"
"09:59:59","71.4","63","74.8","30.21","323","5.4","15","0.00","0.00"
"10:04:57","71.5","63.3","75.3","30.21","340","4.3","12","0.00","0.00"
"10:09:56","71.6","63.5","75.5","30.21","327","3.7","12","0.00","0.00"
"10:14:57","71.9","63.5","75","30.21","341","5.8","13.2","0.00","0.00"
"10:19:56","72.2","63.6","74.6","30.21","326","3.9","8.4","0.00","0.00"
"10:24:59","72.4","64","75","30.21","323","3.9","9.6","0.00","0.00"
"10:29:58","72.7","64","74.3","30.21","341","5","12","0.00","0.00"
"10:34:58","73","64.2","74","30.21","338","4.2","11.5","0.00","0.00"
"10:39:58","73.2","64.5","74.3","30.21","333","3.7","12","0.00","0.00"
"10:44:59","73.6","64.8","74","30.21","340","4","12","0.00","0.00"
"10:49:58","74","64.6","72.7","30.21","337","4.6","13.2","0.00","0.00"
"10:54:57","74.4","65.3","73.2","30.21","328","4.7","12","0.00","0.00"
"10:59:56","74.7","65.1","72.1","30.21","336","3.8","9.6","0.00","0.00"
"11:04:58","75","65.5","72.3","30.20","318","3","16.8","0.00","0.00"
"11:09:58","75.3","65.3","71.3","30.20","326","5","17.3","0.00","0.00"
"11:14:59","75.4","64.8","69.7","30.20","334","5.9","13.2","0.00","0.00"
"11:19:58","75.4","64.4","68.7","30.20","347","3.3","8.4","0.00","0.00"
"11:24:57","75.5","64.8","69.7","30.20","331","3.4","8.4","0.00","0.00"
"11:29:56","75.6","64.5","68.5","30.20","345","7","16.1","0.00","0.00"
"11:34:56","75.5","64.3","68.3","30.20","335","5.1","16.1","0.00","0.00"
"11:39:37","75.6","64.7","68.9","30.20","337","4.6","12","0.00","0.00"
"11:44:56","75.8","64.9","69","30.20","284","3.1","11.5","0.00","0.00"
"11:46:28","75.9","64.6","68","30.20","328","4.8","8.4","0.00","0.00"
"11:54:59","76.1","65.2","68.8","30.20","342","3.4","9.6","0.00","0.00"
"11:59:58","76.3","65.3","68.6","30.20","336","4.9","10.8","0.00","0.00"
"12:04:56","76.5","66","70.1","30.19","334","3.8","8.4","0.00","0.00"
"12:09:59","76.7","65.7","68.7","30.19","339","3.3","12","0.00","0.00"
"12:14:56","76.7","65.3","68.1","30.19","334","4.4","12","0.00","0.00"
"12:19:56","76.9","66.1","69.5","30.19","331","3.6","12","0.00","0.00"
"12:24:59","77.3","65.7","67.7","30.19","319","3.4","12","0.00","0.00"
"12:29:58","77.6","66.2","67.8","30.19","326","2","4.8","0.00","0.00"
"12:34:58","78","65.8","66.4","30.19","346","3","8.4","0.00","0.00"
"12:39:58","77.7","65.5","66","30.19","337","3.7","13.2","0.00","0.00"
"12:44:57","77.6","65.5","66.3","30.19","324","2.8","6","0.00","0.00"
"12:49:57","77.7","65.8","66.8","30.19","350","2.5","7.2","0.00","0.00"
"12:54:56","77.9","66.2","67.4","30.19","356","2.7","12","0.00","0.00"
"12:59:59","78.2","65.5","65","30.19","338","5","13.2","0.00","0.00"
"13:04:57","78.3","65.4","64.7","30.19","344","3.5","12","0.00","0.00"
"13:09:56","78.2","65.5","65.2","30.19","331","3.8","11.5","0.00","0.00"
"13:14:57","78.1","65.3","64.7","30.19","338","2.5","7.2","0.00","0.00"
"13:19:56","78.4","65","63.7","30.18","334","2.5","15.6","0.00","0.00"
"13:24:56","77.9","64.8","64.3","30.18","350","3.8","16.1","0.00","0.00"
"13:29:59","78","65.1","64.7","30.18","318","3.4","7.2","0.00","0.00"
"13:34:26","78.4","64.5","62.5","30.18","329","4.2","13.2","0.00","0.00"
"13:39:59","78.7","64.9","62.9","30.18","337","3.6","12.7","0.00","0.00"
"13:44:59","78.8","64.1","60.6","30.18","317","6","16.1","0.00","0.00"
"13:49:58","78.7","64.6","62.1","30.18","322","4.1","12.7","0.00","0.00"
"13:54:59","78.9","64.3","61.2","30.18","338","4.1","10.8","0.00","0.00"
"13:59:59","78.6","64.2","61.3","30.18","337","3.6","10.8","0.00","0.00"
"14:04:57","78.6","64.9","63","30.18","324","2.7","8.4","0.00","0.00"
"14:09:57","78.9","64.6","61.7","30.18","322","4.5","12","0.00","0.00"
"14:14:56","78.9","64.1","60.5","30.18","328","3.1","10.4","0.00","0.00"
"14:19:57","79","63.8","59.7","30.17","321","3","7.2","0.00","0.00"
"14:24:57","79.3","64.5","60.6","30.17","308","2.4","7.2","0.00","0.00"
"14:29:57","79.7","64.6","60.1","30.17","298","3.4","8.4","0.00","0.00"
"14:34:58","79.9","64.8","59.9","30.17","323","2.5","7.2","0.00","0.00"
"14:39:56","80.2","64.6","58.9","30.17","339","5.3","12","0.00","0.00"
"14:44:57","79.8","63.4","57.3","30.17","0","2.9","9.6","0.00","0.00"
"14:49:58","79.3","62.4","56.4","30.17","342","4.1","13.2","0.00","0.00"
"14:54:59","79.3","63.7","59.1","30.17","331","1.5","3.6","0.00","0.00"
"14:59:56","79.3","63.2","58.1","30.17","331","1.4","3.6","0.00","0.00"
"15:04:56","79.3","63.9","59.4","30.16","330","2.3","6","0.00","0.00"
"15:09:56","79.6","64.1","59.1","30.16","351","3.9","13.2","0.00","0.00"
"15:14:58","80","63.2","56.6","30.16","342","4.9","12","0.00","0.00"
"15:19:59","80.1","62.6","55.2","30.16","334","3.2","10.4","0.00","0.00"
"15:24:55","80.3","63.4","56.4","30.16","334","3","8.4","0.00","0.00"
"15:29:56","80.5","63.1","55.5","30.16","335","2.8","12","0.00","0.00"
"15:34:56","80.6","62.9","55","30.15","338","3.7","11.5","0.00","0.00"
"15:39:59","80.9","63.1","54.8","30.15","253","2","7.2","0.00","0.00"
"15:44:59","81.1","63.3","54.8","30.15","338","3.8","12","0.00","0.00"
"15:49:56","81","63.7","55.8","30.15","342","2.6","11.5","0.00","0.00"
"15:54:57","81","64.1","56.5","30.15","337","2.8","9.6","0.00","0.00"
"15:59:58","80.9","63.5","55.5","30.15","343","2.1","5.8","0.00","0.00"
"16:04:57","81.2","64.9","57.9","30.15","336","2.1","6","0.00","0.00"
"16:09:58","81.3","62.7","53.2","30.15","332","3.9","12","0.00","0.00"
"16:14:56","81","62","52.5","30.15","332","2.4","11.5","0.00","0.00"
"16:19:57","81.1","63","54.2","30.14","313","2.1","6","0.00","0.00"
"16:24:58","81.2","62.8","53.7","30.14","290","1.4","5.8","0.00","0.00"
"16:29:58","81.4","62.9","53.5","30.14","316","2.2","6","0.00","0.00"
"16:34:59","81.3","62.8","53.5","30.14","326","2.4","6","0.00","0.00"
"16:39:57","81","62.7","53.9","30.14","344","1.6","6","0.00","0.00"
"16:44:58","80.8","62.5","53.7","30.15","334","1.5","7.2","0.00","0.00"
"16:49:59","80.8","61.9","52.7","30.15","328","3.3","7.2","0.00","0.00"
"16:54:59","80.9","62.7","54.1","30.15","337","1.8","6","0.00","0.00"
"16:59:56","81","62.6","53.6","30.15","340","1.3","6","0.00","0.00"
"17:04:56","81","61.9","52.4","30.14","326","3","7.2","0.00","0.00"
"17:09:56","81","62.6","53.6","30.14","330","1.8","6","0.00","0.00"
"17:14:59","81","63","54.4","30.14","323","1.4","3.6","0.00","0.00"
"17:19:59","81.1","62.8","53.7","30.14","323","0.7","2.4","0.00","0.00"
"17:24:56","81.3","63.2","54.2","30.14","323","0.3","2.4","0.00","0.00"
"17:29:57","81","62.9","54.2","30.14","327","1.6","6","0.00","0.00"
"17:34:57","80.9","62.1","52.9","30.14","340","2.6","6","0.00","0.00"
"17:39:57","80.8","61.7","52.5","30.14","332","1.4","6","0.00","0.00"
"17:44:58","80.4","62.2","53.8","30.14","336","1.9","5.8","0.00","0.00"
"17:49:59","80.4","62.9","55.3","30.14","339","0.6","4.8","0.00","0.00"
"17:54:56","80.2","61.7","53.3","30.14","339","1.3","4.6","0.00","0.00"
"17:59:56","79.7","61.5","53.9","30.15","338","1.2","4.8","0.00","0.00"
"18:04:57","79.2","61.4","54.5","30.15","340","1.1","4.6","0.00","0.00"
"18:09:56","78.7","61.2","55","30.15","340","0.8","2.4","0.00","0.00"
"18:14:57","78.1","60.6","55","30.15","340","0.7","2.4","0.00","0.00"
"18:19:57","77.5","60.5","56","30.15","342","0.6","2.4","0.00","0.00"
"18:24:56","76.9","60.1","56.2","30.15","348","0.7","3.6","0.00","0.00"
"18:29:59","76.5","59.4","55.7","30.16","348","0.5","2.4","0.00","0.00"
"18:34:59","76.1","59.8","56.9","30.16","348","0.6","3.6","0.00","0.00"
"18:39:56","75.7","59.6","57.3","30.16","348","0.5","2.4","0.00","0.00"
"18:44:59","75.4","59.3","57.5","30.16","347","1","3.6","0.00","0.00"
"18:49:59","75","58.7","57","30.16","347","0.9","3.5","0.00","0.00"
"18:54:59","74.6","58.4","56.9","30.16","347","0.2","2.3","0.00","0.00"
"18:59:59","74.3","58","56.8","30.16","347","0.1","1.2","0.00","0.00"
"19:04:38","73.9","57.5","56.7","30.16","347","0.7","3.6","0.00","0.00"
"19:09:57","73.5","57.6","57.6","30.16","347","0.4","3.5","0.00","0.00"
"19:14:59","73","57.6","58.7","30.16","347","0.1","1.2","0.00","0.00"
"19:19:59","72.4","57.5","59.7","30.16","347","0.1","1.2","0.00","0.00"
"19:24:58","71.7","56.7","59.2","30.16","347","0.1","1.2","0.00","0.00"
"19:29:59","71.2","57","61","30.17","347","0","0","0.00","0.00"
"19:34:59","70.6","59.2","67.2","30.17","347","0","0","0.00","0.00"
"19:39:56","69.8","59.1","68.6","30.17","347","0","0","0.00","0.00"
"19:43:38","69.2","59.5","71.2","30.17","347","0","0","0.00","0.00"
"19:49:57","68.4","58.2","69.8","30.17","347","0.1","1.2","0.00","0.00"
"19:54:57","67.9","57.2","68.7","30.17","347","0","1.2","0.00","0.00"
"19:59:57","67.5","57.3","69.8","30.17","347","0","1.2","0.00","0.00"
"20:04:56","67","58.4","73.9","30.17","347","0","0","0.00","0.00"
"20:09:59","66.6","58.1","74.1","30.17","347","0.1","1.2","0.00","0.00"
"20:14:57","66.1","57.9","74.9","30.18","347","0","1.2","0.00","0.00"
"20:19:57","65.6","57.8","76","30.18","347","0","0","0.00","0.00"
"20:24:57","65.1","57.2","75.8","30.18","347","0","0","0.00","0.00"
"20:29:56","64.8","57.4","77","30.19","347","0.1","1.2","0.00","0.00"
"20:34:56","64.7","57.6","77.6","30.19","347","0.1","1.2","0.00","0.00"
"20:39:58","64.6","57.7","78.4","30.19","347","0","1.2","0.00","0.00"
"20:44:58","64.3","57.6","79","30.19","347","0.1","2.4","0.00","0.00"
"20:49:58","63.8","57.5","79.9","30.19","347","0.4","2.3","0.00","0.00"
"20:54:58","63.5","57.2","80","30.19","347","0","0","0.00","0.00"
"20:59:58","63.2","57","80.2","30.20","347","0","0","0.00","0.00"
"21:04:57","63.1","56.9","80.3","30.20","347","0","0","0.00","0.00"
"21:09:56","62.8","57.1","81.4","30.20","347","0","0","0.00","0.00"
"21:14:58","62.7","57.1","82","30.20","347","0","0","0.00","0.00"
"21:19:58","62.6","57.3","82.9","30.20","347","0","0","0.00","0.00"
"21:24:57","62.6","57.6","83.9","30.20","347","0","0","0.00","0.00"
"21:29:57","62.5","57.6","84","30.20","347","0","0","0.00","0.00"
"21:34:57","62.3","57.4","84","30.20","347","0","0","0.00","0.00"
"21:39:59","62","57.1","84","30.20","347","0","0","0.00","0.00"
"21:44:59","61.8","57.1","84.6","30.21","347","0","0","0.00","0.00"
"21:49:59","61.6","57.2","85.5","30.21","347","0","0","0.00","0.00"
"21:54:59","61.5","57.5","86.7","30.21","347","0","0","0.00","0.00"
"21:59:59","61.4","57.8","88","30.21","347","0","0","0.00","0.00"
"22:04:58","61.4","57.8","88","30.21","347","0","0","0.00","0.00"
"22:09:57","61.3","57.7","87.8","30.21","347","0","0","0.00","0.00"
"22:14:59","61.1","57.2","87","30.21","347","0","0","0.00","0.00"
"22:19:59","60.8","57.2","88","30.21","347","0","0","0.00","0.00"
"22:24:58","60.6","57.3","88.7","30.21","347","0","0","0.00","0.00"
"22:29:58","60.5","57.2","89","30.21","347","0","0","0.00","0.00"
"22:34:58","60.3","57","89","30.21","347","0","0","0.00","0.00"
"22:39:56","60.1","56.9","89.2","30.21","347","0","0","0.00","0.00"
"22:44:56","60","57.1","90","30.22","347","0","0","0.00","0.00"
"22:49:56","59.9","57.2","90.6","30.22","347","0","0","0.00","0.00"
"22:54:56","59.9","57.2","90.9","30.22","347","0","0","0.00","0.00"
"22:59:56","59.8","57.2","91","30.22","347","0","0","0.00","0.00"
"23:04:59","59.7","57.1","91","30.22","347","0","0","0.00","0.00"
"23:09:58","59.5","56.9","91","30.22","347","0","0","0.00","0.00"
"23:14:56","59.4","56.8","91.2","30.22","347","0","0","0.00","0.00"
"23:19:56","59.3","56.9","91.8","30.22","347","0","0","0.00","0.00"
"23:24:56","59.3","56.8","91.5","30.22","347","0","0","0.00","0.00"
"23:29:07","59.1","56.5","91.1","30.22","347","0","0","0.00","0.00"
"23:34:56","58.9","56.6","92","30.22","347","0","0","0.00","0.00"
"23:39:57","58.7","56.4","92","30.22","347","0","0","0.00","0.00"
"23:44:58","58.5","56.2","92","30.22","347","0","0","0.00","0.00"
"23:49:58","58.4","56.1","92.2","30.22","347","0","0","0.00","0.00"
"23:54:58","58.2","56.1","92.6","30.22","347","0","0","0.00","0.00"
